| time (UTC) | temp F | wind direction | speed MPH | gust MPH | rain 1hr in | rain 24hr in | rain mn in | humidity % | barometer mb |
| 20260507132405 | 74 | 51 | 3.0 | 5.0 | 0.00 | 0.00 | 0.00 | 71 | 1013.0 |
| 20260507131404 | 75 | 51 | 3.0 | 5.0 | 0.00 | 0.00 | 0.00 | 71 | 1013.0 |
| 20260507130404 | 76 | 51 | 3.0 | 5.0 | 0.00 | 0.00 | 0.00 | 71 | 1013.0 |
| 20260507125404 | 77 | 51 | 3.0 | 5.0 | 0.00 | 0.00 | 0.00 | 71 | 1013.0 |
| 20260507124403 | 78 | 51 | 3.0 | 5.0 | 0.00 | 0.00 | 0.00 | 71 | 1013.0 |
| 20260507123403 | 68 | 47 | 3.0 | 5.0 | 0.00 | 0.00 | 0.00 | 76 | 1013.0 |
| 20260507122402 | 68 | 47 | 3.0 | 5.0 | 0.00 | 0.00 | 0.00 | 76 | 1013.0 |
| 20260507121402 | 69 | 47 | 3.0 | 5.0 | 0.00 | 0.00 | 0.00 | 76 | 1013.0 |
| 20260507120402 | 70 | 47 | 3.0 | 5.0 | 0.00 | 0.00 | 0.00 | 76 | 1013.0 |
| 20260507115402 | 71 | 47 | 3.0 | 5.0 | 0.00 | 0.00 | 0.00 | 76 | 1013.0 |
| 20260507114401 | 72 | 47 | 3.0 | 5.0 | 0.00 | 0.00 | 0.00 | 76 | 1013.0 |
| 20260507113401 | 68 | 47 | 4.0 | 7.0 | 0.00 | 0.00 | 0.00 | 73 | 1013.0 |
| 20260507112400 | 69 | 47 | 4.0 | 7.0 | 0.00 | 0.00 | 0.00 | 73 | 1012.0 |
| 20260507111400 | 69 | 47 | 4.0 | 7.0 | 0.00 | 0.00 | 0.00 | 73 | 1012.0 |
| 20260507110400 | 70 | 47 | 4.0 | 7.0 | 0.00 | 0.00 | 0.00 | 73 | 1012.0 |
| 20260507105400 | 71 | 47 | 4.0 | 7.0 | 0.00 | 0.00 | 0.00 | 73 | 1012.0 |
| 20260507104359 | 71 | 47 | 4.0 | 7.0 | 0.00 | 0.00 | 0.00 | 73 | 1012.0 |
| 20260507103359 | 72 | 47 | 4.0 | 7.0 | 0.00 | 0.00 | 0.00 | 73 | 1012.0 |
| 20260507102358 | 73 | 47 | 4.0 | 7.0 | 0.00 | 0.00 | 0.00 | 73 | 1012.0 |
| 20260507101358 | 74 | 47 | 4.0 | 7.0 | 0.00 | 0.00 | 0.00 | 73 | 1012.0 |
| 20260507100358 | 75 | 47 | 4.0 | 7.0 | 0.00 | 0.00 | 0.00 | 73 | 1012.0 |
| 20260507095358 | 75 | 47 | 4.0 | 7.0 | 0.00 | 0.00 | 0.00 | 73 | 1012.0 |
| 20260507094357 | 76 | 47 | 4.0 | 7.0 | 0.00 | 0.00 | 0.00 | 73 | 1012.0 |
| 20260507093357 | 77 | 47 | 4.0 | 7.0 | 0.00 | 0.00 | 0.00 | 73 | 1012.0 |
| 20260507092356 | 70 | 50 | 3.0 | 4.0 | 0.00 | 0.00 | 0.00 | 71 | 1012.0 |
| 20260507091356 | 71 | 50 | 3.0 | 4.0 | 0.00 | 0.00 | 0.00 | 71 | 1012.0 |
| 20260507090356 | 72 | 50 | 3.0 | 4.0 | 0.00 | 0.00 | 0.00 | 71 | 1012.0 |
| 20260507085355 | 73 | 50 | 3.0 | 4.0 | 0.00 | 0.00 | 0.00 | 71 | 1012.0 |
| 20260507084355 | 74 | 50 | 3.0 | 4.0 | 0.00 | 0.00 | 0.00 | 71 | 1012.0 |
| 20260507083355 | 75 | 50 | 3.0 | 4.0 | 0.00 | 0.00 | 0.00 | 71 | 1013.0 |
| 20260507082354 | 75 | 50 | 3.0 | 4.0 | 0.00 | 0.00 | 0.00 | 71 | 1013.0 |
| 20260507081354 | 76 | 50 | 3.0 | 4.0 | 0.00 | 0.00 | 0.00 | 71 | 1013.0 |
| 20260507080353 | 70 | 50 | 3.0 | 3.0 | 0.00 | 0.00 | 0.00 | 71 | 1013.0 |
| 20260507075353 | 71 | 50 | 3.0 | 3.0 | 0.00 | 0.00 | 0.00 | 71 | 1013.0 |
| 20260507074353 | 72 | 50 | 3.0 | 3.0 | 0.00 | 0.00 | 0.00 | 71 | 1013.0 |
| 20260507073352 | 73 | 50 | 3.0 | 3.0 | 0.00 | 0.00 | 0.00 | 71 | 1013.0 |
| 20260507072352 | 74 | 50 | 3.0 | 3.0 | 0.00 | 0.00 | 0.00 | 71 | 1013.0 |
| 20260507071352 | 75 | 50 | 3.0 | 3.0 | 0.00 | 0.00 | 0.00 | 71 | 1013.0 |
| 20260507070351 | 76 | 50 | 3.0 | 3.0 | 0.00 | 0.00 | 0.00 | 71 | 1013.0 |
| 20260507065351 | 70 | 61 | 4.0 | 8.0 | 0.00 | 0.00 | 0.00 | 71 | 1013.0 |
| 20260507064351 | 71 | 61 | 4.0 | 8.0 | 0.00 | 0.00 | 0.00 | 71 | 1013.0 |
| 20260507063351 | 71 | 61 | 4.0 | 8.0 | 0.00 | 0.00 | 0.00 | 71 | 1013.0 |
| 20260507062350 | 72 | 61 | 4.0 | 8.0 | 0.00 | 0.00 | 0.00 | 71 | 1014.0 |
| 20260507061350 | 73 | 61 | 4.0 | 8.0 | 0.00 | 0.00 | 0.00 | 71 | 1014.0 |
| 20260507060350 | 74 | 61 | 4.0 | 8.0 | 0.00 | 0.00 | 0.00 | 71 | 1014.0 |
| 20260507055349 | 74 | 61 | 4.0 | 8.0 | 0.00 | 0.00 | 0.00 | 71 | 1014.0 |
| 20260507054349 | 75 | 61 | 4.0 | 8.0 | 0.00 | 0.00 | 0.00 | 71 | 1014.0 |
| 20260507053348 | 76 | 61 | 4.0 | 8.0 | 0.00 | 0.00 | 0.00 | 71 | 1014.0 |
| 20260507052348 | 76 | 61 | 4.0 | 8.0 | 0.00 | 0.00 | 0.00 | 71 | 1014.0 |
| 20260507051348 | 77 | 61 | 4.0 | 8.0 | 0.00 | 0.00 | 0.00 | 71 | 1014.0 |
| 20260507050348 | 70 | 61 | 4.0 | 8.0 | 0.00 | 0.00 | 0.00 | 71 | 1014.0 |
| 20260507045347 | 71 | 61 | 4.0 | 8.0 | 0.00 | 0.00 | 0.00 | 71 | 1014.0 |
| 20260507044347 | 72 | 61 | 4.0 | 8.0 | 0.00 | 0.00 | 0.00 | 71 | 1014.0 |
| 20260507043346 | 73 | 61 | 4.0 | 8.0 | 0.00 | 0.00 | 0.00 | 71 | 1014.0 |
| 20260507042346 | 71 | 69 | 4.0 | 8.0 | 0.00 | 0.00 | 0.00 | 65 | 1014.0 |
| 20260507041346 | 72 | 69 | 4.0 | 8.0 | 0.00 | 0.00 | 0.00 | 65 | 1014.0 |
| 20260507040345 | 73 | 69 | 4.0 | 8.0 | 0.00 | 0.00 | 0.00 | 65 | 1014.0 |
| 20260507035345 | 74 | 69 | 4.0 | 8.0 | 0.00 | 0.00 | 0.00 | 65 | 1014.0 |
| 20260507034344 | 75 | 69 | 4.0 | 8.0 | 0.00 | 0.00 | 0.00 | 65 | 1014.0 |
| 20260507033344 | 76 | 69 | 4.0 | 9.0 | 0.00 | 0.00 | 0.00 | 65 | 1014.0 |
| 20260507032344 | 73 | 82 | 4.0 | 10.0 | 0.00 | 0.00 | 0.00 | 56 | 1013.0 |
| 20260507031344 | 74 | 82 | 4.0 | 10.0 | 0.00 | 0.00 | 0.00 | 56 | 1013.0 |
| 20260507030343 | 75 | 82 | 4.0 | 10.0 | 0.00 | 0.00 | 0.00 | 56 | 1013.0 |
| 20260507025343 | 76 | 82 | 4.0 | 10.0 | 0.00 | 0.00 | 0.00 | 56 | 1013.0 |
| 20260507024343 | 77 | 82 | 4.0 | 10.0 | 0.00 | 0.00 | 0.00 | 56 | 1013.0 |
| 20260507023342 | 78 | 82 | 4.0 | 10.0 | 0.00 | 0.00 | 0.00 | 56 | 1013.0 |
| 20260507022341 | 79 | 82 | 4.0 | 10.0 | 0.00 | 0.00 | 0.00 | 56 | 1012.0 |
| 20260507021341 | 80 | 82 | 4.0 | 10.0 | 0.00 | 0.00 | 0.00 | 56 | 1012.0 |
| 20260507020341 | 81 | 82 | 4.0 | 10.0 | 0.00 | 0.00 | 0.00 | 56 | 1012.0 |
| 20260507015341 | 82 | 82 | 4.0 | 10.0 | 0.00 | 0.00 | 0.00 | 56 | 1012.0 |
| 20260507014340 | 74 | 81 | 11.0 | 15.0 | 0.00 | 0.00 | 0.00 | 45 | 1012.0 |
| 20260507013340 | 75 | 81 | 11.0 | 15.0 | 0.00 | 0.00 | 0.00 | 45 | 1012.0 |
| 20260507012340 | 76 | 81 | 11.0 | 15.0 | 0.00 | 0.00 | 0.00 | 45 | 1011.0 |
| 20260507011339 | 77 | 81 | 11.0 | 15.0 | 0.00 | 0.00 | 0.00 | 45 | 1011.0 |
| 20260507010339 | 78 | 81 | 11.0 | 15.0 | 0.00 | 0.00 | 0.00 | 45 | 1011.0 |
| 20260507005338 | 79 | 81 | 11.0 | 15.0 | 0.00 | 0.00 | 0.00 | 45 | 1011.0 |
| 20260507004338 | 80 | 81 | 11.0 | 15.0 | 0.00 | 0.00 | 0.00 | 45 | 1011.0 |
| 20260507003338 | 81 | 81 | 11.0 | 15.0 | 0.00 | 0.00 | 0.00 | 45 | 1011.0 |
| 20260507002338 | 82 | 81 | 11.0 | 15.0 | 0.00 | 0.00 | 0.00 | 45 | 1010.0 |
| 20260507001337 | 83 | 81 | 11.0 | 15.0 | 0.00 | 0.00 | 0.00 | 45 | 1010.0 |
| 20260507000337 | 84 | 81 | 11.0 | 15.0 | 0.00 | 0.00 | 0.00 | 45 | 1010.0 |
| 20260506235336 | 85 | 81 | 11.0 | 15.0 | 0.00 | 0.00 | 0.00 | 45 | 1010.0 |
| 20260506234336 | 86 | 81 | 11.0 | 15.0 | 0.00 | 0.00 | 0.00 | 45 | 1010.0 |
| 20260506233336 | 86 | 81 | 11.0 | 15.0 | 0.00 | 0.00 | 0.00 | 45 | 1010.0 |
| 20260506232336 | 87 | 81 | 11.0 | 15.0 | 0.00 | 0.00 | 0.00 | 45 | 1009.0 |
| 20260506231335 | 88 | 81 | 11.0 | 15.0 | 0.00 | 0.00 | 0.00 | 45 | 1009.0 |
| 20260506230335 | 89 | 81 | 11.0 | 15.0 | 0.00 | 0.00 | 0.00 | 45 | 1009.0 |
| 20260506225335 | 90 | 81 | 11.0 | 15.0 | 0.00 | 0.00 | 0.00 | 45 | 1009.0 |
| 20260506224334 | 91 | 81 | 11.0 | 15.0 | 0.00 | 0.00 | 0.00 | 45 | 1009.0 |
| 20260506223334 | 91 | 81 | 11.0 | 15.0 | 0.00 | 0.00 | 0.00 | 45 | 1009.0 |
| 20260506222334 | 84 | 98 | 10.0 | 10.0 | 0.00 | 0.00 | 0.00 | 36 | 1009.0 |
| 20260506221333 | 85 | 98 | 10.0 | 10.0 | 0.00 | 0.00 | 0.00 | 36 | 1009.0 |
| 20260506220333 | 86 | 98 | 10.0 | 10.0 | 0.00 | 0.00 | 0.00 | 36 | 1009.0 |
| 20260506215332 | 86 | 98 | 10.0 | 10.0 | 0.00 | 0.00 | 0.00 | 36 | 1009.0 |
| 20260506214332 | 87 | 98 | 10.0 | 10.0 | 0.00 | 0.00 | 0.00 | 36 | 1009.0 |
| 20260506213332 | 88 | 98 | 10.0 | 10.0 | 0.00 | 0.00 | 0.00 | 36 | 1009.0 |
| 20260506212331 | 89 | 98 | 10.0 | 10.0 | 0.00 | 0.00 | 0.00 | 36 | 1008.0 |
| 20260506211331 | 90 | 98 | 10.0 | 10.0 | 0.00 | 0.00 | 0.00 | 36 | 1008.0 |
| 20260506210331 | 91 | 98 | 10.0 | 10.0 | 0.00 | 0.00 | 0.00 | 36 | 1008.0 |
| 20260506205330 | 91 | 98 | 10.0 | 10.0 | 0.00 | 0.00 | 0.00 | 36 | 1008.0 |
| 20260506204330 | 92 | 98 | 10.0 | 10.0 | 0.00 | 0.00 | 0.00 | 36 | 1008.0 |
| 20260506203330 | 92 | 98 | 10.0 | 10.0 | 0.00 | 0.00 | 0.00 | 36 | 1008.0 |
| 20260506202329 | 93 | 98 | 10.0 | 10.0 | 0.00 | 0.00 | 0.00 | 36 | 1009.0 |
| 20260506201329 | 94 | 98 | 10.0 | 10.0 | 0.00 | 0.00 | 0.00 | 36 | 1009.0 |
| 20260506200329 | 95 | 98 | 10.0 | 10.0 | 0.00 | 0.00 | 0.00 | 36 | 1009.0 |
| 20260506195328 | 96 | 98 | 10.0 | 10.0 | 0.00 | 0.00 | 0.00 | 36 | 1009.0 |
| 20260506194328 | 97 | 98 | 10.0 | 10.0 | 0.00 | 0.00 | 0.00 | 36 | 1009.0 |
| 20260506193328 | 98 | 98 | 10.0 | 10.0 | 0.00 | 0.00 | 0.00 | 36 | 1009.0 |
| 20260506192327 | 99 | 98 | 10.0 | 10.0 | 0.00 | 0.00 | 0.00 | 36 | 1010.0 |
| 20260506191327 | 100 | 98 | 10.0 | 10.0 | 0.00 | 0.00 | 0.00 | 36 | 1010.0 |
| 20260506190326 | 101 | 98 | 10.0 | 10.0 | 0.00 | 0.00 | 0.00 | 36 | 1010.0 |
| 20260506185326 | 102 | 98 | 10.0 | 10.0 | 0.00 | 0.00 | 0.00 | 36 | 1010.0 |
| 20260506184325 | 92 | 97 | 8.0 | 10.0 | 0.00 | 0.00 | 0.00 | 38 | 1010.0 |
| 20260506183325 | 93 | 97 | 8.0 | 10.0 | 0.00 | 0.00 | 0.00 | 38 | 1010.0 |
| 20260506182325 | 94 | 97 | 8.0 | 10.0 | 0.00 | 0.00 | 0.00 | 38 | 1011.0 |
| 20260506181324 | 94 | 97 | 8.0 | 10.0 | 0.00 | 0.00 | 0.00 | 38 | 1011.0 |
| 20260506180324 | 95 | 97 | 8.0 | 10.0 | 0.00 | 0.00 | 0.00 | 38 | 1011.0 |
| 20260506175324 | 96 | 97 | 9.0 | 10.0 | 0.00 | 0.00 | 0.00 | 38 | 1011.0 |
| 20260506174323 | 88 | 95 | 8.0 | 10.0 | 0.00 | 0.00 | 0.00 | 40 | 1012.0 |
| 20260506173323 | 88 | 95 | 8.0 | 10.0 | 0.00 | 0.00 | 0.00 | 40 | 1012.0 |
| 20260506172323 | 89 | 95 | 8.0 | 10.0 | 0.00 | 0.00 | 0.00 | 40 | 1012.0 |
| 20260506171322 | 90 | 95 | 8.0 | 10.0 | 0.00 | 0.00 | 0.00 | 40 | 1012.0 |
| 20260506170322 | 91 | 95 | 8.0 | 10.0 | 0.00 | 0.00 | 0.00 | 40 | 1012.0 |
| 20260506165322 | 92 | 95 | 9.0 | 10.0 | 0.00 | 0.00 | 0.00 | 40 | 1012.0 |
| 20260506164321 | 88 | 87 | 8.0 | 10.0 | 0.00 | 0.00 | 0.00 | 46 | 1013.0 |
| 20260506163321 | 89 | 87 | 8.0 | 10.0 | 0.00 | 0.00 | 0.00 | 46 | 1013.0 |
| 20260506162321 | 90 | 87 | 8.0 | 10.0 | 0.00 | 0.00 | 0.00 | 46 | 1013.0 |
| 20260506161320 | 90 | 87 | 8.0 | 10.0 | 0.00 | 0.00 | 0.00 | 46 | 1013.0 |
| 20260506160320 | 91 | 87 | 8.0 | 10.0 | 0.00 | 0.00 | 0.00 | 46 | 1013.0 |
| 20260506155320 | 92 | 87 | 8.0 | 10.0 | 0.00 | 0.00 | 0.00 | 46 | 1013.0 |
| 20260506154320 | 93 | 87 | 8.0 | 10.0 | 0.00 | 0.00 | 0.00 | 46 | 1013.0 |
| 20260506153319 | 82 | 75 | 7.0 | 11.0 | 0.00 | 0.00 | 0.00 | 54 | 1013.0 |
| 20260506152319 | 83 | 75 | 7.0 | 11.0 | 0.00 | 0.00 | 0.00 | 54 | 1013.0 |
| 20260506151318 | 84 | 75 | 7.0 | 11.0 | 0.00 | 0.00 | 0.00 | 54 | 1013.0 |
| 20260506150318 | 85 | 75 | 7.0 | 11.0 | 0.00 | 0.00 | 0.00 | 54 | 1013.0 |
| 20260506145318 | 86 | 75 | 7.0 | 11.0 | 0.00 | 0.00 | 0.00 | 54 | 1013.0 |
| 20260506144317 | 87 | 75 | 7.0 | 11.0 | 0.00 | 0.00 | 0.00 | 54 | 1013.0 |
| 20260506143317 | 79 | 62 | 5.0 | 10.0 | 0.00 | 0.00 | 0.00 | 63 | 1013.0 |
| 20260506142317 | 80 | 62 | 5.0 | 10.0 | 0.00 | 0.00 | 0.00 | 63 | 1013.0 |
| 20260506141317 | 81 | 62 | 5.0 | 10.0 | 0.00 | 0.00 | 0.00 | 63 | 1013.0 |
| 20260506140316 | 82 | 62 | 5.0 | 10.0 | 0.00 | 0.00 | 0.00 | 63 | 1013.0 |
| 20260506135316 | 83 | 62 | 5.0 | 10.0 | 0.00 | 0.00 | 0.00 | 63 | 1013.0 |
| 20260506134316 | 84 | 62 | 6.0 | 10.0 | 0.00 | 0.00 | 0.00 | 63 | 1013.0 |
| 20260506133315 | 76 | 65 | 4.0 | 8.0 | 0.00 | 0.00 | 0.00 | 70 | 1013.0 |